| time (UTC) | temp F | wind direction | speed MPH | gust MPH | rain 1hr in | rain 24hr in | rain mn in | humidity % | barometer mb |
| 20260510205033 | 97 | 289 | 8.0 | 12.0 | 0.00 | 0.00 | 0.00 | 11 | 1009.0 |
| 20260510204033 | 97 | 351 | 1.0 | 12.0 | 0.00 | 0.00 | 0.00 | 11 | 1009.3 |
| 20260510203033 | 97 | 310 | 4.0 | 10.0 | 0.00 | 0.00 | 0.00 | 11 | 1009.5 |
| 20260510202031 | 96 | 308 | 4.0 | 9.0 | 0.00 | 0.00 | 0.00 | 11 | 1009.5 |
| 20260510201033 | 96 | 303 | 8.0 | 13.0 | 0.00 | 0.00 | 0.00 | 11 | 1009.8 |
| 20260510200033 | 96 | 291 | 5.0 | 13.0 | 0.00 | 0.00 | 0.00 | 11 | 1009.8 |
| 20260510195033 | 95 | 272 | 6.0 | 13.0 | 0.00 | 0.00 | 0.00 | 11 | 1009.8 |
| 20260510194033 | 95 | 271 | 5.0 | 10.0 | 0.00 | 0.00 | 0.00 | 11 | 1009.8 |
| 20260510193033 | 95 | 288 | 4.0 | 10.0 | 0.00 | 0.00 | 0.00 | 12 | 1010.2 |
| 20260510192050 | 94 | 291 | 2.0 | 7.0 | 0.00 | 0.00 | 0.00 | 12 | 1010.2 |
| 20260510191033 | 94 | 289 | 4.0 | 13.0 | 0.00 | 0.00 | 0.00 | 12 | 1010.3 |
| 20260510190033 | 94 | 284 | 3.0 | 15.0 | 0.00 | 0.00 | 0.00 | 13 | 1010.4 |
| 20260510185033 | 93 | 293 | 4.0 | 10.0 | 0.00 | 0.00 | 0.00 | 13 | 1010.4 |
| 20260510184033 | 93 | 273 | 2.0 | 9.0 | 0.00 | 0.00 | 0.00 | 13 | 1010.5 |
| 20260510183050 | 93 | 298 | 4.0 | 7.0 | 0.00 | 0.00 | 0.00 | 13 | 1010.4 |
| 20260510182033 | 93 | 76 | 3.0 | 10.0 | 0.00 | 0.00 | 0.00 | 13 | 1010.4 |
| 20260510181048 | 92 | 38 | 0.0 | 3.0 | 0.00 | 0.00 | 0.00 | 14 | 1010.4 |
| 20260510180031 | 92 | 16 | 1.0 | 7.0 | 0.00 | 0.00 | 0.00 | 14 | 1010.5 |
| 20260510175033 | 91 | 58 | 1.0 | 6.0 | 0.00 | 0.00 | 0.00 | 14 | 1010.5 |
| 20260510174033 | 90 | 284 | 1.0 | 6.0 | 0.00 | 0.00 | 0.00 | 14 | 1010.7 |
| 20260510173033 | 90 | 86 | 2.0 | 9.0 | 0.00 | 0.00 | 0.00 | 15 | 1010.5 |
| 20260510172033 | 89 | 280 | 1.0 | 7.0 | 0.00 | 0.00 | 0.00 | 15 | 1010.5 |
| 20260510171033 | 89 | 358 | 2.0 | 9.0 | 0.00 | 0.00 | 0.00 | 15 | 1010.6 |
| 20260510170031 | 88 | 53 | 1.0 | 9.0 | 0.00 | 0.00 | 0.00 | 15 | 1010.8 |
| 20260510165031 | 87 | 276 | 0.0 | 3.0 | 0.00 | 0.00 | 0.00 | 16 | 1010.8 |
| 20260510164033 | 87 | 23 | 1.0 | 7.0 | 0.00 | 0.00 | 0.00 | 16 | 1010.8 |
| 20260510163033 | 86 | 20 | 1.0 | 6.0 | 0.00 | 0.00 | 0.00 | 17 | 1010.7 |
| 20260510162033 | 85 | 271 | 2.0 | 6.0 | 0.00 | 0.00 | 0.00 | 17 | 1010.7 |
| 20260510161033 | 84 | 58 | 1.0 | 3.0 | 0.00 | 0.00 | 0.00 | 18 | 1011.0 |
| 20260510160033 | 83 | 57 | 0.0 | 3.0 | 0.00 | 0.00 | 0.00 | 19 | 1010.8 |
| 20260510155031 | 82 | 54 | 1.0 | 6.0 | 0.00 | 0.00 | 0.00 | 19 | 1010.8 |
| 20260510154050 | 81 | 66 | 0.0 | 4.0 | 0.00 | 0.00 | 0.00 | 19 | 1011.1 |
| 20260510153050 | 81 | 36 | 1.0 | 6.0 | 0.00 | 0.00 | 0.00 | 19 | 1010.5 |
| 20260510152033 | 80 | 65 | 0.0 | 3.0 | 0.00 | 0.00 | 0.00 | 19 | 1010.5 |
| 20260510151050 | 80 | 3 | 0.0 | 3.0 | 0.00 | 0.00 | 0.00 | 19 | 1010.7 |
| 20260510150033 | 80 | 36 | 0.0 | 3.0 | 0.00 | 0.00 | 0.00 | 20 | 1010.6 |
| 20260510145033 | 79 | 0 | 0.0 | 0.0 | 0.00 | 0.00 | 0.00 | 21 | 1010.6 |
| 20260510144048 | 77 | 0 | 0.0 | 0.0 | 0.00 | 0.00 | 0.00 | 22 | 1010.7 |
| 20260510143031 | 75 | 0 | 0.0 | 1.0 | 0.00 | 0.00 | 0.00 | 23 | 1010.5 |
| 20260510142033 | 74 | 4 | 0.0 | 1.0 | 0.00 | 0.00 | 0.00 | 25 | 1010.5 |
| 20260510141050 | 72 | 323 | 0.0 | 1.0 | 0.00 | 0.00 | 0.00 | 25 | 1010.5 |
| 20260510140051 | 71 | 0 | 0.0 | 0.0 | 0.00 | 0.00 | 0.00 | 26 | 1010.7 |
| 20260510135033 | 70 | 343 | 0.0 | 1.0 | 0.00 | 0.00 | 0.00 | 28 | 1010.7 |
| 20260510134033 | 69 | 0 | 0.0 | 0.0 | 0.00 | 0.00 | 0.00 | 29 | 1010.8 |
| 20260510133031 | 67 | 0 | 0.0 | 0.0 | 0.00 | 0.00 | 0.00 | 29 | 1010.6 |
| 20260510132050 | 67 | 0 | 0.0 | 0.0 | 0.00 | 0.00 | 0.00 | 26 | 1010.6 |
| 20260510131107 | 68 | 31 | 0.0 | 1.0 | 0.00 | 0.00 | 0.00 | 26 | 1010.2 |
| 20260510130031 | 70 | 5 | 1.0 | 3.0 | 0.00 | 0.00 | 0.00 | 24 | 1009.6 |
| 20260510125033 | 70 | 29 | 0.0 | 3.0 | 0.00 | 0.00 | 0.00 | 22 | 1009.6 |
| 20260510124034 | 69 | 338 | 0.0 | 1.0 | 0.00 | 0.00 | 0.00 | 23 | 1009.4 |
| 20260510123033 | 70 | 0 | 0.0 | 0.0 | 0.00 | 0.00 | 0.00 | 25 | 1009.2 |
| 20260510122031 | 70 | 0 | 0.0 | 0.0 | 0.00 | 0.00 | 0.00 | 24 | 1009.2 |
| 20260510121033 | 70 | 0 | 0.0 | 0.0 | 0.00 | 0.00 | 0.00 | 22 | 1008.9 |
| 20260510120033 | 70 | 29 | 1.0 | 3.0 | 0.00 | 0.00 | 0.00 | 22 | 1009.0 |
| 20260510115051 | 70 | 35 | 2.0 | 4.0 | 0.00 | 0.00 | 0.00 | 23 | 1009.0 |
| 20260510114033 | 69 | 39 | 0.0 | 1.0 | 0.00 | 0.00 | 0.00 | 24 | 1009.0 |
| 20260510113033 | 69 | 39 | 0.0 | 3.0 | 0.00 | 0.00 | 0.00 | 24 | 1009.1 |
| 20260510112033 | 69 | 40 | 0.0 | 1.0 | 0.00 | 0.00 | 0.00 | 24 | 1009.1 |
| 20260510111031 | 69 | 40 | 0.0 | 1.0 | 0.00 | 0.00 | 0.00 | 24 | 1009.1 |
| 20260510110033 | 69 | 0 | 0.0 | 0.0 | 0.00 | 0.00 | 0.00 | 24 | 1009.0 |
| 20260510105108 | 70 | 40 | 0.0 | 3.0 | 0.00 | 0.00 | 0.00 | 24 | 1009.0 |
| 20260510104033 | 72 | 0 | 0.0 | 0.0 | 0.00 | 0.00 | 0.00 | 22 | 1008.9 |
| 20260510103033 | 72 | 59 | 0.0 | 1.0 | 0.00 | 0.00 | 0.00 | 21 | 1008.8 |
| 20260510102033 | 72 | 0 | 0.0 | 0.0 | 0.00 | 0.00 | 0.00 | 21 | 1008.8 |
| 20260510101031 | 72 | 0 | 0.0 | 0.0 | 0.00 | 0.00 | 0.00 | 21 | 1008.8 |
| 20260510100033 | 72 | 62 | 0.0 | 1.0 | 0.00 | 0.00 | 0.00 | 21 | 1008.8 |
| 20260510095033 | 72 | 0 | 0.0 | 0.0 | 0.00 | 0.00 | 0.00 | 21 | 1008.8 |
| 20260510094033 | 73 | 62 | 0.0 | 1.0 | 0.00 | 0.00 | 0.00 | 21 | 1008.5 |
| 20260510093033 | 73 | 62 | 0.0 | 1.0 | 0.00 | 0.00 | 0.00 | 20 | 1008.3 |
| 20260510092033 | 73 | 0 | 0.0 | 0.0 | 0.00 | 0.00 | 0.00 | 21 | 1008.3 |
| 20260510091033 | 73 | 0 | 0.0 | 0.0 | 0.00 | 0.00 | 0.00 | 21 | 1008.4 |
| 20260510090031 | 73 | 26 | 0.0 | 1.0 | 0.00 | 0.00 | 0.00 | 21 | 1008.4 |
| 20260510085033 | 73 | 52 | 0.0 | 1.0 | 0.00 | 0.00 | 0.00 | 21 | 1008.4 |
| 20260510084033 | 73 | 39 | 0.0 | 4.0 | 0.00 | 0.00 | 0.00 | 21 | 1008.4 |
| 20260510083033 | 73 | 57 | 0.0 | 3.0 | 0.00 | 0.00 | 0.00 | 22 | 1008.6 |
| 20260510082033 | 73 | 77 | 0.0 | 1.0 | 0.00 | 0.00 | 0.00 | 22 | 1008.6 |
| 20260510081033 | 72 | 0 | 0.0 | 0.0 | 0.00 | 0.00 | 0.00 | 23 | 1008.6 |
| 20260510080033 | 73 | 0 | 0.0 | 0.0 | 0.00 | 0.00 | 0.00 | 23 | 1008.8 |
| 20260510075031 | 73 | 0 | 0.0 | 0.0 | 0.00 | 0.00 | 0.00 | 22 | 1008.8 |
| 20260510074033 | 73 | 0 | 0.0 | 0.0 | 0.00 | 0.00 | 0.00 | 23 | 1008.8 |
| 20260510073050 | 73 | 33 | 0.0 | 3.0 | 0.00 | 0.00 | 0.00 | 24 | 1008.8 |
| 20260510072033 | 73 | 0 | 0.0 | 0.0 | 0.00 | 0.00 | 0.00 | 22 | 1008.8 |
| 20260510071050 | 73 | 0 | 0.0 | 0.0 | 0.00 | 0.00 | 0.00 | 21 | 1008.8 |
| 20260510070033 | 74 | 0 | 0.0 | 0.0 | 0.00 | 0.00 | 0.00 | 21 | 1008.8 |
| 20260510065033 | 74 | 0 | 0.0 | 0.0 | 0.00 | 0.00 | 0.00 | 21 | 1008.8 |
| 20260510064048 | 75 | 0 | 0.0 | 0.0 | 0.00 | 0.00 | 0.00 | 21 | 1008.4 |
| 20260510063050 | 75 | 0 | 0.0 | 0.0 | 0.00 | 0.00 | 0.00 | 21 | 1008.5 |
| 20260510062033 | 76 | 0 | 0.0 | 0.0 | 0.00 | 0.00 | 0.00 | 20 | 1008.5 |
| 20260510061033 | 77 | 286 | 0.0 | 6.0 | 0.00 | 0.00 | 0.00 | 19 | 1008.2 |
| 20260510060033 | 78 | 66 | 0.0 | 1.0 | 0.00 | 0.00 | 0.00 | 18 | 1007.9 |
| 20260510055033 | 78 | 272 | 0.0 | 1.0 | 0.00 | 0.00 | 0.00 | 19 | 1007.9 |
| 20260510054033 | 78 | 273 | 0.0 | 1.0 | 0.00 | 0.00 | 0.00 | 18 | 1007.7 |
| 20260510053033 | 78 | 81 | 0.0 | 1.0 | 0.00 | 0.00 | 0.00 | 18 | 1007.9 |
| 20260510052033 | 78 | 88 | 0.0 | 3.0 | 0.00 | 0.00 | 0.00 | 18 | 1007.9 |
| 20260510051050 | 78 | 89 | 0.0 | 3.0 | 0.00 | 0.00 | 0.00 | 18 | 1007.8 |
| 20260510050033 | 78 | 282 | 0.0 | 1.0 | 0.00 | 0.00 | 0.00 | 18 | 1007.6 |
| 20260510045033 | 78 | 274 | 0.0 | 3.0 | 0.00 | 0.00 | 0.00 | 18 | 1007.6 |
| 20260510044033 | 79 | 63 | 0.0 | 1.0 | 0.00 | 0.00 | 0.00 | 18 | 1007.3 |
| 20260510043031 | 79 | 62 | 0.0 | 1.0 | 0.00 | 0.00 | 0.00 | 18 | 1007.5 |
| 20260510042033 | 79 | 59 | 0.0 | 1.0 | 0.00 | 0.00 | 0.00 | 18 | 1007.5 |
| 20260510041050 | 80 | 0 | 0.0 | 0.0 | 0.00 | 0.00 | 0.00 | 18 | 1007.1 |
| 20260510040033 | 81 | 0 | 0.0 | 0.0 | 0.00 | 0.00 | 0.00 | 17 | 1006.8 |
| 20260510035050 | 82 | 0 | 0.0 | 0.0 | 0.00 | 0.00 | 0.00 | 16 | 1006.8 |
| 20260510034033 | 83 | 0 | 0.0 | 0.0 | 0.00 | 0.00 | 0.00 | 15 | 1006.4 |
| 20260510033107 | 84 | 0 | 0.0 | 0.0 | 0.00 | 0.00 | 0.00 | 15 | 1006.7 |
| 20260510032031 | 85 | 27 | 0.0 | 1.0 | 0.00 | 0.00 | 0.00 | 15 | 1006.7 |
| 20260510031033 | 85 | 27 | 0.0 | 1.0 | 0.00 | 0.00 | 0.00 | 14 | 1006.4 |
| 20260510030033 | 86 | 28 | 0.0 | 1.0 | 0.00 | 0.00 | 0.00 | 14 | 1006.2 |
| 20260510025050 | 86 | 28 | 0.0 | 1.0 | 0.00 | 0.00 | 0.00 | 14 | 1006.2 |
| 20260510024033 | 87 | 26 | 0.0 | 3.0 | 0.00 | 0.00 | 0.00 | 14 | 1005.9 |
| 20260510023033 | 88 | 0 | 0.0 | 0.0 | 0.00 | 0.00 | 0.00 | 14 | 1006.2 |
| 20260510022033 | 89 | 0 | 0.0 | 0.0 | 0.00 | 0.00 | 0.00 | 14 | 1006.2 |
| 20260510021031 | 90 | 0 | 0.0 | 0.0 | 0.00 | 0.00 | 0.00 | 13 | 1005.8 |
| 20260510020033 | 91 | 29 | 0.0 | 1.0 | 0.00 | 0.00 | 0.00 | 13 | 1005.5 |
| 20260510015033 | 91 | 349 | 0.0 | 3.0 | 0.00 | 0.00 | 0.00 | 12 | 1005.5 |
| 20260510014033 | 92 | 314 | 1.0 | 9.0 | 0.00 | 0.00 | 0.00 | 12 | 1005.2 |
| 20260510013033 | 93 | 304 | 1.0 | 6.0 | 0.00 | 0.00 | 0.00 | 12 | 1006.3 |
| 20260510012033 | 94 | 300 | 1.0 | 7.0 | 0.00 | 0.00 | 0.00 | 12 | 1006.3 |
| 20260510011033 | 94 | 307 | 4.0 | 13.0 | 0.00 | 0.00 | 0.00 | 11 | 1006.1 |
| 20260510010031 | 95 | 325 | 0.0 | 4.0 | 0.00 | 0.00 | 0.00 | 11 | 1006.1 |
| 20260510005033 | 95 | 338 | 0.0 | 1.0 | 0.00 | 0.00 | 0.00 | 11 | 1006.1 |
| 20260510004033 | 95 | 318 | 0.0 | 4.0 | 0.00 | 0.00 | 0.00 | 11 | 1006.2 |
| 20260510003050 | 95 | 305 | 1.0 | 9.0 | 0.00 | 0.00 | 0.00 | 12 | 1006.3 |
| 20260510002033 | 95 | 324 | 2.0 | 7.0 | 0.00 | 0.00 | 0.00 | 12 | 1006.3 |
| 20260510001033 | 95 | 300 | 5.0 | 10.0 | 0.00 | 0.00 | 0.00 | 11 | 1006.5 |
| 20260509235107 | 96 | 286 | 4.0 | 12.0 | 0.00 | 0.00 | 0.00 | 11 | 1006.3 |
| 20260509234033 | 96 | 286 | 4.0 | 13.0 | 0.00 | 0.00 | 0.00 | 11 | 1006.5 |
| 20260509233033 | 96 | 292 | 6.0 | 15.0 | 0.00 | 0.00 | 0.00 | 11 | 1006.5 |
| 20260509232033 | 96 | 291 | 4.0 | 10.0 | 0.00 | 0.00 | 0.00 | 11 | 1006.5 |
| 20260509231033 | 96 | 308 | 7.0 | 15.0 | 0.00 | 0.00 | 0.00 | 11 | 1006.7 |
| 20260509230033 | 96 | 309 | 5.0 | 10.0 | 0.00 | 0.00 | 0.00 | 12 | 1006.8 |
| 20260509225031 | 96 | 290 | 4.0 | 12.0 | 0.00 | 0.00 | 0.00 | 12 | 1006.8 |
| 20260509224050 | 96 | 300 | 4.0 | 10.0 | 0.00 | 0.00 | 0.00 | 12 | 1007.0 |
| 20260509223050 | 96 | 285 | 6.0 | 12.0 | 0.00 | 0.00 | 0.00 | 12 | 1006.7 |
| 20260509222035 | 96 | 291 | 8.0 | 15.0 | 0.00 | 0.00 | 0.00 | 12 | 1006.7 |
| 20260509221033 | 96 | 297 | 6.0 | 13.0 | 0.00 | 0.00 | 0.00 | 12 | 1006.8 |
| 20260509220033 | 96 | 323 | 4.0 | 10.0 | 0.00 | 0.00 | 0.00 | 12 | 1007.2 |
| 20260509215033 | 95 | 304 | 4.0 | 12.0 | 0.00 | 0.00 | 0.00 | 12 | 1007.2 |
| 20260509214031 | 95 | 288 | 6.0 | 10.0 | 0.00 | 0.00 | 0.00 | 12 | 1007.3 |
| 20260509213031 | 96 | 297 | 3.0 | 15.0 | 0.00 | 0.00 | 0.00 | 12 | 1007.8 |
| 20260509212033 | 95 | 314 | 2.0 | 10.0 | 0.00 | 0.00 | 0.00 | 12 | 1007.8 |
| 20260509211108 | 95 | 296 | 4.0 | 12.0 | 0.00 | 0.00 | 0.00 | 12 | 1007.8 |
| 20260509210051 | 95 | 337 | 2.0 | 10.0 | 0.00 | 0.00 | 0.00 | 13 | 1008.0 |